Notices

What's New in latest release on October 27, 2021:

- Updated email addresses on the CDO Contacts page.

- Updated station operator of Churchill Falls (Climate ID: 8501130).

- Radar site name change from Jimmy Lake to Cold Lake on October 27, 2021.

Hourly Data Report for July 24, 2021

LONDON CS
ONTARIO
Current Station Operator: ECCC - MSC

43°02'00.000" N
81°09'00.000" W
278.00 m
6144478
71622
WSN

Download Data

Hourly Data (July 2021)
Hourly Data Report for July 24, 2021
TIME
LST
Temp Definition
°C
Dew Point Definition
°C
Rel Hum Definition
%
Precip. Amount Definition
mm

Wind Dir Definition
10's deg

Wind Spd Definition
km/h
Visibility Definition
km
Stn Press Definition
kPa
Hmdx Definition


Wind Chill Definition


Weather Definition


00:00 16.3 12.8 80 0.0       98.68     LegendNANA
01:00 16.4 13.5 83 0.0       98.63     LegendNANA
02:00 16.1 13.9 87 0.0       98.58     LegendNANA
03:00 16.4 14.1 87 0.0       98.55     LegendNANA
04:00 16.3 14.4 89 0.0       98.51     LegendNANA
05:00 16.7 14.6 88 0.0       98.43     LegendNANA
06:00 17.3 14.9 86 0.0       98.43     LegendNANA
07:00 19.5 16.7 84 0.0       98.34     LegendNANA
08:00 22.1 18.3 79 0.0       98.35 28   LegendNANA
09:00 22.3 18.7 80 0.0       98.34 29   LegendNANA
10:00 22.2 19.5 84 0.0       98.32 29   LegendNANA
11:00 21.6 19.1 86 0.0       98.30 28   LegendNANA
12:00 20.2 19.5 96 6.3       98.26 27   LegendNANA
13:00 20.4 19.7 96 1.8       98.16 28   LegendNANA
14:00 22.1 20.6 92 0.0       98.06 30   LegendNANA
15:00 23.0 20.3 85 0.0       97.97 31   LegendNANA
16:00 23.1 20.3 85 0.0       97.88 31   LegendNANA
17:00 22.9 20.3 85 0.0       97.85 31   LegendNANA
18:00 22.4 20.5 89 0.0       97.82 30   LegendNANA
19:00 22.7 21.2 91 0.5       97.61 31   LegendNANA
20:00 23.5 20.8 85 0.0       97.59 32   LegendNANA
21:00 22.7 20.8 89 2.5       97.62 31   LegendNANA
22:00 21.5 20.6 95 8.7       97.73 30   LegendNANA
23:00 20.7 20.0 96 0.0       97.72 28   LegendNANA

Notes on Data Quality.

Legend

  • E = Estimated
  • M = Missing
  • NA = Not Available*
  • [empty] = Indicates an unobserved value
Date modified: